Farmville, VA

4:49 PM EST on December 12, 2017 (GMT -0500)
Farmville Regional

Weather History for KFVX - October, 2011

Change the Weather History Date:

Thursday, October 13, 2011

  Actual Average Record
Temperature  
Mean Temperature 74 °F -  
Max Temperature 80 °F 71 °F 92 °F (1954)
Min Temperature 68 °F 46 °F 24 °F (1957)
Cooling Degree Days 9    
Growing Degree Days 24 (Base 50)    
Moisture  
Dew Point 71 °F    
Average Humidity 83    
Maximum Humidity 100    
Minimum Humidity 70    
Precipitation  
Precipitation 1.46 in - - ()
Sea Level Pressure  
Sea Level Pressure 29.66 in    
Wind  
Wind Speed 3 mph (South)    
Max Wind Speed 16 mph    
Max Gust Speed 21 mph    
Visibility 7 miles    
Events Rain , Thunderstorm    
Averages and records for this station are not official NWS values.
T = Trace of Precipitation, MM = Missing Value Source: NWS Daily Summary

Daily Weather History Graph

Daily Weather History Graph

Search for Another Location

Airport or City:

Trip Planner

Search our weather history database for the weather conditions in past years. The results will help you decide how hot, cold, wet, or windy it might be!

Date:

Astronomy

Oct. 13, 2011 Rise Set
Actual Time 7:19 AM EDT 6:39 PM EDT
Civil Twilight 6:53 AM EDT 7:06 PM EDT
Nautical Twilight 6:23 AM EDT 7:36 PM EDT
Astronomical Twilight 5:52 AM EDT 8:06 PM EDT
Moon 7:18 PM EDT (10/13) 8:46 AM EDT (10/13)
Length of Visible Light 12h 12m
Length of Day
11h 20m
Full, 98% of the Moon is Illuminated
Oct 13
Full
Oct 19
Last Quarter
Oct 26
New
Nov 2
First Quarter
Nov 10
Full

Hourly Weather History & Observations

Time (EDT) Temp. Heat Index Dew Point Humidity Pressure Visibility Wind Dir Wind Speed Gust Speed Precip Events Conditions
12:15 AM 69.8 °F - - N/A% 29.76 in 2.5 mi Calm Calm - 0.07 in Rain Light Rain
12:35 AM 69.8 °F - - N/A% 29.76 in 1.5 mi Calm Calm - 0.07 in Rain , Thunderstorm Light Thunderstorms and Rain
12:55 AM 71.6 °F - - N/A% 29.75 in 5.0 mi Calm Calm - 0.05 in Rain Light Rain
1:15 AM 69.8 °F - - N/A% 29.75 in 4.0 mi Calm Calm - 0.21 in Rain , Thunderstorm Heavy Thunderstorms and Rain
1:35 AM 69.8 °F - - N/A% 29.74 in 10.0 mi North 4.6 mph - 0.10 in Rain Light Rain
1:55 AM 68.0 °F - - N/A% 29.74 in 2.5 mi Calm Calm - 0.12 in Rain , Thunderstorm Heavy Thunderstorms and Rain
2:15 AM 68.0 °F - - N/A% 29.74 in 7.0 mi NNE 3.5 mph - 0.30 in Rain Rain
2:35 AM 68.0 °F - - N/A% 29.74 in 5.0 mi NW 3.5 mph - 0.37 in Rain , Thunderstorm Rain
2:55 AM 69.8 °F - - N/A% 29.73 in 5.0 mi NNE 4.6 mph - 0.01 in Rain , Thunderstorm Light Thunderstorms and Rain
3:15 AM 69.8 °F - - N/A% 29.72 in 4.0 mi NNE 5.8 mph - 0.01 in Rain , Thunderstorm Thunderstorms and Rain
3:35 AM 69.8 °F - - N/A% 29.72 in 5.0 mi NNE 4.6 mph - 0.04 in Rain , Thunderstorm Rain
3:55 AM 69.8 °F - - N/A% 29.72 in 5.0 mi West 3.5 mph - N/A   Drizzle
4:15 AM 69.8 °F - - N/A% 29.71 in 7.0 mi NE 3.5 mph - 0.01 in Rain Rain
4:35 AM 69.8 °F - - N/A% 29.70 in 7.0 mi North 3.5 mph - 0.02 in Rain Rain
5:15 AM 69.8 °F - - N/A% 29.70 in 7.0 mi Calm Calm - 0.11 in Rain , Thunderstorm Thunderstorms and Rain
5:35 AM 69.8 °F - - N/A% 29.70 in 5.0 mi Calm Calm - 0.18 in Rain Heavy Rain
5:55 AM 69.8 °F - - N/A% 29.70 in 1.5 mi Calm Calm - 0.19 in Rain , Thunderstorm Heavy Thunderstorms and Rain
6:15 AM 69.8 °F - - N/A% 29.69 in 7.0 mi North 4.6 mph - 0.44 in Rain , Thunderstorm Rain
6:35 AM 69.8 °F - - N/A% 29.71 in 4.0 mi Calm Calm - 0.54 in Rain , Thunderstorm Heavy Thunderstorms and Rain
6:55 AM 69.8 °F - - N/A% 29.71 in 10.0 mi Calm Calm - 0.02 in Rain , Thunderstorm Rain
7:15 AM 69.8 °F - - N/A% 29.70 in 7.0 mi Calm Calm - 0.02 in Thunderstorm Drizzle
7:35 AM 69.8 °F - - N/A% 29.70 in 10.0 mi NNE 5.8 mph - 0.03 in Rain Light Rain
7:55 AM 69.8 °F - - N/A% 29.70 in 10.0 mi Calm Calm - N/A   Overcast
8:15 AM 68.0 °F - - N/A% 29.71 in 5.0 mi Calm Calm - N/A   Haze
8:35 AM 68.0 °F - - N/A% 29.71 in 1.5 mi Calm Calm - N/A   Overcast
8:55 AM 69.8 °F - - N/A% 29.70 in 1.8 mi North 3.5 mph - N/A   Overcast
9:35 AM 69.8 °F - - N/A% 29.70 in 4.0 mi Calm Calm - N/A   Overcast
9:55 AM 69.8 °F - - N/A% 29.70 in 2.0 mi Calm Calm - N/A   Overcast
10:15 AM 69.8 °F - - N/A% 29.69 in 4.0 mi Calm Calm - N/A   Haze
10:35 AM 69.8 °F - - N/A% 29.69 in 3.0 mi Calm Calm - N/A   Overcast
10:55 AM 71.6 °F - - N/A% 29.68 in 4.0 mi Calm Calm - N/A   Haze
11:15 AM 71.6 °F - - N/A% 29.68 in 4.0 mi Calm Calm - N/A   Haze
11:35 AM 73.4 °F - - N/A% 29.67 in 7.0 mi Calm Calm - N/A   Overcast
11:55 AM 73.4 °F - - N/A% 29.67 in 10.0 mi Calm Calm - N/A   Overcast
12:15 PM 75.2 °F - 75.2 °F 100% 29.65 in 10.0 mi Calm Calm - N/A   Mostly Cloudy
12:35 PM 75.2 °F - 75.2 °F 100% 29.65 in 10.0 mi Calm Calm - N/A   Scattered Clouds
12:55 PM 77.0 °F - 75.2 °F 94% 29.64 in 10.0 mi Calm Calm - N/A   Mostly Cloudy
1:15 PM 78.8 °F - 71.6 °F 78% 29.62 in 10.0 mi South 5.8 mph - N/A   Mostly Cloudy
1:35 PM 80.6 °F 83.9 °F 69.8 °F 70% 29.61 in 10.0 mi South 9.2 mph 16.1 mph N/A   Scattered Clouds
1:55 PM 80.6 °F 84.6 °F 71.6 °F 74% 29.60 in 10.0 mi SSE 12.7 mph - N/A   Scattered Clouds
2:15 PM 78.8 °F - 69.8 °F 74% 29.59 in 10.0 mi South 10.4 mph 17.3 mph N/A   Mostly Cloudy
2:35 PM 73.4 °F - 73.4 °F 100% 29.59 in 10.0 mi SSW 3.5 mph - 0.01 in Rain Light Rain
2:55 PM 75.2 °F - 75.2 °F 100% 29.58 in 10.0 mi SSW 6.9 mph - N/A   Scattered Clouds
3:15 PM 78.8 °F - 73.4 °F 83% 29.57 in 10.0 mi South 4.6 mph - N/A   Scattered Clouds
3:35 PM 80.6 °F 83.9 °F 69.8 °F 70% 29.56 in 10.0 mi South 11.5 mph 17.3 mph N/A   Scattered Clouds
3:55 PM 80.6 °F 83.9 °F 69.8 °F 70% 29.55 in 10.0 mi South 12.7 mph 19.6 mph N/A   Scattered Clouds
4:15 PM 80.6 °F 83.9 °F 69.8 °F 70% 29.55 in 10.0 mi South 16.1 mph 20.7 mph N/A   Scattered Clouds
4:35 PM 80.6 °F 83.9 °F 69.8 °F 70% 29.55 in 10.0 mi South 10.4 mph 18.4 mph N/A   Scattered Clouds
4:55 PM 78.8 °F - 69.8 °F 74% 29.54 in 10.0 mi South 16.1 mph 20.7 mph N/A   Mostly Cloudy
5:15 PM 77.0 °F - 69.8 °F 78% 29.55 in 10.0 mi South 6.9 mph - N/A   Scattered Clouds
5:35 PM 77.0 °F - 69.8 °F 78% 29.55 in 10.0 mi South 6.9 mph - N/A   Scattered Clouds
5:55 PM 77.0 °F - 69.8 °F 78% 29.55 in 10.0 mi South 8.1 mph - N/A   Scattered Clouds
6:15 PM 75.2 °F - 69.8 °F 83% 29.55 in 10.0 mi South 4.6 mph - N/A   Clear
6:35 PM 73.4 °F - 71.6 °F 94% 29.54 in 10.0 mi Calm Calm - N/A   Scattered Clouds
6:55 PM 73.4 °F - 71.6 °F 94% 29.55 in 10.0 mi SSW 5.8 mph - N/A   Scattered Clouds
7:15 PM 73.4 °F - 71.6 °F 94% 29.56 in 10.0 mi SSW 5.8 mph - N/A   Mostly Cloudy
7:35 PM 73.4 °F - 66.2 °F 78% 29.56 in 10.0 mi SW 11.5 mph 16.1 mph N/A   Scattered Clouds
7:55 PM 71.6 °F - 66.2 °F 83% 29.57 in 10.0 mi SSW 3.5 mph - N/A   Scattered Clouds
8:15 PM 71.6 °F - 66.2 °F 83% 29.57 in 10.0 mi SSW 3.5 mph - N/A   Scattered Clouds
8:35 PM 69.8 °F - 68.0 °F 94% 29.57 in 10.0 mi Calm Calm - N/A   Mostly Cloudy
8:55 PM 69.8 °F - 68.0 °F 94% 29.57 in 10.0 mi Calm Calm - N/A   Mostly Cloudy
9:15 PM 68.0 °F - 66.2 °F 94% 29.58 in 10.0 mi Calm Calm - N/A   Mostly Cloudy
9:35 PM 68.0 °F - 66.2 °F 94% 29.58 in 10.0 mi South 3.5 mph - N/A   Scattered Clouds
10:15 PM 66.2 °F - 66.2 °F 100% 29.58 in 10.0 mi Calm Calm - N/A   Clear
10:35 PM 66.2 °F - 66.2 °F 100% 29.58 in 10.0 mi South 4.6 mph - N/A   Clear
10:55 PM 68.0 °F - 66.2 °F 94% 29.58 in 10.0 mi SSW 4.6 mph - N/A   Clear
11:15 PM 66.2 °F - 66.2 °F 100% 29.58 in 10.0 mi SSW 4.6 mph - N/A   Clear
11:35 PM 68.0 °F - 66.2 °F 94% 29.57 in 10.0 mi SSW 5.8 mph - N/A   Clear
11:55 PM 66.2 °F - 66.2 °F 100% 29.57 in 10.0 mi South 4.6 mph - N/A   Clear